Shawnee, OK

2:34 PM CST on February 24, 2017 (GMT -0600)
Shawnee Municipal

Weather History for KSNL - July, 2013

Change the Weather History Date:

Monday, July 29, 2013

  Actual Average (KTIK) Record (KTIK)
Temperature  
Mean Temperature 84 °F -  
Max Temperature 91 °F 90 °F 105 °F (2012)
Min Temperature 77 °F 70 °F 64 °F (2005)
Cooling Degree Days 19    
Growing Degree Days 34 (Base 50)    
Moisture  
Dew Point 76 °F    
Average Humidity 79    
Maximum Humidity 94    
Minimum Humidity 59    
Precipitation  
Precipitation 0.00 in - - ()
Sea Level Pressure  
Sea Level Pressure 29.98 in    
Wind  
Wind Speed 11 mph (SSE)    
Max Wind Speed 20 mph    
Max Gust Speed 26 mph    
Visibility 10 miles    
Events Rain , Thunderstorm    
Averages and records for this station are not official NWS values.
T = Trace of Precipitation, MM = Missing Value Source: NWS Daily Summary

Daily Weather History Graph

Daily Weather History Graph

Search for Another Location

Airport or City:

Trip Planner

Search our weather history database for the weather conditions in past years. The results will help you decide how hot, cold, wet, or windy it might be!

Date:

Astronomy

Jul. 29, 2013 Rise Set
Actual Time 6:34 AM CDT 8:33 PM CDT
Civil Twilight 6:06 AM CDT 9:01 PM CDT
Nautical Twilight 5:31 AM CDT 9:35 PM CDT
Astronomical Twilight 4:55 AM CDT 10:12 PM CDT
Moon 12:14 AM CDT (7/29) 1:58 PM CDT (7/29)
Length of Visible Light 14h 55m
Length of Day
13h 59m
Waning Gibbous, 50% of the Moon is Illuminated
Jul 29
Waning Gibbous
Jul 29
Last Quarter
Aug 6
New
Aug 14
First Quarter
Aug 20
Full

Hourly Weather History & Observations

Time (CDT) Temp. Heat Index Dew Point Humidity Pressure Visibility Wind Dir Wind Speed Gust Speed Precip Events Conditions
12:15 AM 78.8 °F - 71.6 °F 78% 30.00 in 10.0 mi SE 8.1 mph - N/A   Clear
12:35 AM 78.8 °F - 71.6 °F 78% 30.01 in 10.0 mi SE 9.2 mph - N/A   Clear
12:55 AM 78.8 °F - 71.6 °F 78% 30.01 in 10.0 mi SSE 10.4 mph - N/A   Clear
1:15 AM 78.8 °F - 71.6 °F 78% 30.00 in 10.0 mi SE 10.4 mph - N/A   Clear
1:35 AM 77.0 °F - 71.6 °F 83% 30.00 in 10.0 mi SE 9.2 mph - N/A   Clear
1:55 AM 77.0 °F - 71.6 °F 83% 30.00 in 10.0 mi SE 9.2 mph - N/A   Clear
2:15 AM 77.0 °F - 71.6 °F 83% 30.00 in 10.0 mi SE 9.2 mph - N/A   Clear
2:55 AM 77.0 °F - 71.6 °F 83% 29.99 in 10.0 mi SSE 10.4 mph - N/A   Clear
3:15 AM 77.0 °F - 71.6 °F 83% 29.99 in 10.0 mi SSE 10.4 mph - N/A   Clear
3:35 AM 77.0 °F - 71.6 °F 83% 29.99 in 10.0 mi SSE 10.4 mph - N/A   Clear
3:55 AM 77.0 °F - 73.4 °F 89% 29.99 in 10.0 mi SSE 9.2 mph - N/A   Clear
4:15 AM 77.0 °F - 73.4 °F 89% 29.99 in 10.0 mi SE 10.4 mph 16.1 mph N/A   Clear
4:35 AM 77.0 °F - 73.4 °F 89% 29.99 in 10.0 mi SE 12.7 mph - N/A   Clear
4:55 AM 77.0 °F - 73.4 °F 89% 29.98 in 10.0 mi SSE 9.2 mph - N/A   Clear
5:15 AM 77.0 °F - 73.4 °F 89% 29.98 in 10.0 mi SSE 12.7 mph - N/A   Clear
5:35 AM 77.0 °F - 73.4 °F 89% 29.99 in 10.0 mi SSE 10.4 mph 17.3 mph N/A   Clear
5:55 AM 77.0 °F - 73.4 °F 89% 29.99 in 10.0 mi SSE 10.4 mph - N/A   Clear
6:15 AM 77.0 °F - 73.4 °F 89% 29.99 in 10.0 mi SE 10.4 mph - N/A   Clear
6:35 AM 77.0 °F - 73.4 °F 89% 29.99 in 10.0 mi SE 9.2 mph - N/A   Scattered Clouds
6:55 AM 77.0 °F - 73.4 °F 89% 29.99 in 10.0 mi SE 11.5 mph 17.3 mph N/A   Scattered Clouds
7:15 AM 77.0 °F - 73.4 °F 89% 30.00 in 10.0 mi SSE 12.7 mph - N/A   Clear
7:35 AM 77.0 °F - 73.4 °F 89% 30.00 in 10.0 mi SE 11.5 mph - N/A   Clear
7:55 AM 77.0 °F - 73.4 °F 89% 30.00 in 10.0 mi SE 12.7 mph 17.3 mph N/A   Clear
8:15 AM 77.0 °F - 73.4 °F 89% 30.00 in 10.0 mi SE 12.7 mph 17.3 mph N/A   Clear
8:35 AM 77.0 °F - 75.2 °F 94% 30.01 in 10.0 mi SSE 12.7 mph - N/A   Clear
8:55 AM 78.8 °F - 75.2 °F 89% 30.01 in 10.0 mi SSE 12.7 mph - N/A   Scattered Clouds
9:15 AM 80.6 °F 87.1 °F 77.0 °F 89% 30.01 in 10.0 mi SSE 11.5 mph - N/A   Scattered Clouds
9:35 AM 80.6 °F 87.1 °F 77.0 °F 89% 30.01 in 10.0 mi South 15.0 mph - N/A   Clear
10:15 AM 82.4 °F 90.9 °F 77.0 °F 84% 30.01 in 10.0 mi SSE 12.7 mph - N/A   Scattered Clouds
10:35 AM 82.4 °F 89.5 °F 75.2 °F 79% 30.01 in 10.0 mi South 17.3 mph - N/A   Scattered Clouds
10:55 AM 84.2 °F 94.1 °F 77.0 °F 79% 30.01 in 10.0 mi SSE 15.0 mph 18.4 mph N/A   Scattered Clouds
11:15 AM 84.2 °F 94.1 °F 77.0 °F 79% 30.02 in 10.0 mi South 11.5 mph - N/A   Scattered Clouds
11:35 AM 86.0 °F 96.9 °F 77.0 °F 74% 30.02 in 10.0 mi SSE 12.7 mph 19.6 mph N/A   Scattered Clouds
11:55 AM 86.0 °F 96.9 °F 77.0 °F 74% 30.01 in 10.0 mi SSE 13.8 mph 21.9 mph N/A   Clear
12:15 PM 87.8 °F 102.5 °F 78.8 °F 75% 30.01 in 10.0 mi SSE 12.7 mph 20.7 mph N/A   Clear
12:35 PM 87.8 °F 99.7 °F 77.0 °F 70% 30.00 in 10.0 mi South 16.1 mph 20.7 mph N/A   Clear
12:55 PM 91.4 °F 107.2 °F 78.8 °F 66% 30.01 in 10.0 mi South 11.5 mph 18.4 mph N/A   Clear
1:15 PM 91.4 °F 107.2 °F 78.8 °F 66% 30.00 in 10.0 mi South 12.7 mph - N/A   Scattered Clouds
1:35 PM 86.0 °F 96.9 °F 77.0 °F 74% 30.00 in 10.0 mi South 12.7 mph 16.1 mph N/A   Scattered Clouds
1:55 PM 86.0 °F 96.9 °F 77.0 °F 74% 30.00 in 10.0 mi SSE 11.5 mph - N/A   Scattered Clouds
2:15 PM 87.8 °F 99.7 °F 77.0 °F 70% 30.00 in 10.0 mi SSE 12.7 mph - N/A   Clear
2:35 PM 91.4 °F 105.1 °F 77.0 °F 63% 29.99 in 10.0 mi South 15.0 mph 21.9 mph N/A   Clear
2:55 PM 87.8 °F 99.7 °F 77.0 °F 70% 29.99 in 10.0 mi SSE 12.7 mph 17.3 mph N/A   Clear
4:15 PM 91.4 °F 105.1 °F 77.0 °F 63% 29.96 in 10.0 mi South 13.8 mph 25.3 mph N/A   Scattered Clouds
4:35 PM 91.4 °F 102.5 °F 75.2 °F 59% 29.95 in 10.0 mi SSE 17.3 mph 20.7 mph N/A   Clear
4:55 PM 91.4 °F 105.1 °F 77.0 °F 63% 29.95 in 10.0 mi South 18.4 mph 25.3 mph N/A   Clear
5:15 PM 91.4 °F 107.2 °F 78.8 °F 66% 29.94 in 10.0 mi SSE 16.1 mph 24.2 mph N/A   Clear
5:35 PM 91.4 °F 107.2 °F 78.8 °F 66% 29.93 in 10.0 mi SSE 19.6 mph 26.5 mph N/A   Clear
5:55 PM 87.8 °F 99.7 °F 77.0 °F 70% 29.93 in 10.0 mi SSE 18.4 mph 23.0 mph N/A   Clear
6:15 PM 87.8 °F 99.7 °F 77.0 °F 70% 29.94 in 10.0 mi SSE 16.1 mph 21.9 mph N/A   Scattered Clouds
6:35 PM 87.8 °F 99.7 °F 77.0 °F 70% 29.95 in 10.0 mi South 11.5 mph 20.7 mph N/A   Clear
6:55 PM 87.8 °F 102.5 °F 78.8 °F 75% 29.95 in 10.0 mi SSE 15.0 mph 18.4 mph N/A   Clear
7:15 PM 87.8 °F 102.5 °F 78.8 °F 75% 29.94 in 7.0 mi SSE 13.8 mph 17.3 mph N/A   Scattered Clouds
7:35 PM 86.0 °F 99.3 °F 78.8 °F 79% 29.94 in 10.0 mi SSE 11.5 mph 20.7 mph N/A   Scattered Clouds
7:55 PM 86.0 °F 99.3 °F 78.8 °F 79% 29.94 in 7.0 mi SSE 13.8 mph - N/A   Clear
8:15 PM 86.0 °F 99.3 °F 78.8 °F 79% 29.94 in 7.0 mi SSE 10.4 mph 17.3 mph N/A   Clear
8:35 PM 84.2 °F 96.1 °F 78.8 °F 84% 29.93 in 7.0 mi SSE 10.4 mph - N/A   Clear
8:55 PM 84.2 °F 96.1 °F 78.8 °F 84% 29.96 in 10.0 mi SSE 9.2 mph 17.3 mph N/A   Clear
9:15 PM 84.2 °F 94.1 °F 77.0 °F 79% 29.96 in 10.0 mi SSE 11.5 mph 18.4 mph N/A   Clear
9:35 PM 84.2 °F 94.1 °F 77.0 °F 79% 29.96 in 10.0 mi SSE 16.1 mph 19.6 mph N/A   Clear
9:55 PM 84.2 °F 94.1 °F 77.0 °F 79% 29.97 in 7.0 mi SSE 11.5 mph 18.4 mph N/A   Clear
10:15 PM 84.2 °F 94.1 °F 77.0 °F 79% 29.97 in 10.0 mi SSE 15.0 mph 19.6 mph N/A   Clear
10:35 PM 84.2 °F 94.1 °F 77.0 °F 79% 29.97 in 10.0 mi SSE 15.0 mph 19.6 mph N/A   Clear
10:55 PM 84.2 °F 94.1 °F 77.0 °F 79% 29.97 in 10.0 mi SSE 15.0 mph 21.9 mph N/A   Clear
11:15 PM 84.2 °F 94.1 °F 77.0 °F 79% 29.97 in 10.0 mi SSE 13.8 mph 20.7 mph N/A   Clear
11:35 PM 84.2 °F 92.3 °F 75.2 °F 74% 29.97 in 10.0 mi South 12.7 mph - N/A   Clear
11:55 PM 82.4 °F 90.9 °F 77.0 °F 84% 29.96 in 10.0 mi SSE 13.8 mph 18.4 mph N/A Rain , Thunderstorm Light Thunderstorms and Rain